weather.gov     
National Weather Service

Regional Weather Roundup
NWS Homepage
This page is being discontinued on March 12, 2014.
The same data is available at this site. Please update your bookmarks.
Thank you, and we apologize for the inconvenience.
Please send an email to SR-SRH.Webmaster@noaa.gov with any concerns.


Current Version
Previous Version:    01  02  03  04  05  06  07  08  09  10  11  12  13  14  15  16  17  18  19  20  21  22  23  24  25  26  27  28  29  30  
   31  32  33  34  35  36  37  38  39  40  41  42  43  44  45  46  47  48  49  50  51  52  53  54  
[Printable]
660
ASUS44 KOUN 181810
RWROK

WEATHER ROUNDUP FOR OKLAHOMA
NATIONAL WEATHER SERVICE NORMAN OK
100 PM CDT FRI APR 18 2014

NOTE: "FAIR" INDICATES FEW OR NO CLOUDS BELOW 12,000 FEET WITH NO
      SIGNIFICANT WEATHER AND/OR OBSTRUCTIONS TO VISIBILITY.

OKZ001>007-009>012-014-015-017-181900-
NORTHWEST OKLAHOMA AND THE PANHANDLE

CITY           SKY/WX    TMP DP  RH WIND       PRES   REMARKS
GAGE           SUNNY     67  42  40 S18G24    30.20S
6HR MIN TEMP:  46; 6HR MAX TEMP:  67;

ENID/VANCE AFB SUNNY     66  46  48 SE10G16   30.22F
ENID/WOODRING  SUNNY     70  43  37 SE14      30.22F
$$

OKZ016-021>023-033>039-044-045-181900-
SOUTHWEST OKLAHOMA

CITY           SKY/WX    TMP DP  RH WIND       PRES   REMARKS
LAWTON/REGL    SUNNY     68  47  46 SE6       30.23F
6HR MIN TEMP:  46; 6HR MAX TEMP:  69;

LAWTON/FT SILL SUNNY     69  48  46 SE9       30.22F
FREDERICK      CLOUDY    62  52  69 S7        30.22F
CLINTON        SUNNY     65  46  50 S9G21     30.24F
HOBART         CLOUDY    66  47  50 S13       30.23F
ALTUS AFB      CLOUDY    63  52  67 SE7       30.24F
$$

OKZ018>020-024>031-181900-
CENTRAL OKLAHOMA

CITY           SKY/WX    TMP DP  RH WIND       PRES   REMARKS
OKLAHOMA CITY  SUNNY     69  41  36 SE8       30.23F
6HR MIN TEMP:  42; 6HR MAX TEMP:  69;

OKC/WILEY POST SUNNY     67  40  37 SE8G16    30.23F
OKC/TINKER AFB SUNNY     68  43  39 VRB5      30.23F
STILLWATER     SUNNY     69  42  37 VRB7      30.24F
GUTHRIE        SUNNY     69  41  36 E7        30.23F
$$

OKZ008-013-054>072-181900-
NORTHEAST OKLAHOMA

CITY           SKY/WX    TMP DP  RH WIND       PRES   REMARKS
TULSA          SUNNY     69  43  38 NE6       30.24F
6HR MIN TEMP:  40; 6HR MAX TEMP:  69;

TULSA/JONES    SUNNY     71  43  36 E6        30.24F
PONCA CITY     SUNNY     68  42  38 SE9       30.24F
BARTLESVILLE   SUNNY     67  42  40 VRB5      30.27F
MUSKOGEE       SUNNY     70  42  36 VRB3      30.24F
$$

OKZ032-040>043-046>053-073>077-181900-
SOUTH CENTRAL/SOUTHEAST OKLAHOMA

CITY           SKY/WX    TMP DP  RH WIND       PRES   REMARKS
ARDMORE/DWNTWN   N/A     70  39  32 SE5       30.22F
MCALESTER      MOSUNNY   71  40  32 N5        30.24F
$$





U.S. Dept. of Commerce
NOAA National Weather Service
1325 East West Highway
Silver Spring, MD 20910
E-mail: w-nws.webmaster@noaa.gov
Page last modified: May 16, 2007
NATIONAL WEATHER SERVICE: for Safety, for Work, for Fun - FOR LIFE